• In Uzbekistan
  • List of Countries
  • For 7 days
  • Water Temperature
  • Satellite Maps
  • Weather Map
  • Weather Widgets
  • user-avatar
    Login

    Hourly Weather Budakeszi

    Today, 24 September, Sunday

    Time Temperature Precipitation Wind Pressure Humidity
    00:00 +10°C° 0 mm 2 mps 737 mmHg 88%
    01:00 +9°C° 0 mm 2 mps 737 mmHg 88%
    02:00 +10°C° 0 mm 1 mps 737 mmHg 89%
    03:00 +10°C° 0 mm 1 mps 737 mmHg 89%
    04:00 +10°C° 0 mm 1 mps 737 mmHg 90%
    05:00 +10°C° 0 mm 1 mps 737 mmHg 89%
    06:00 +11°C° 0 mm 1 mps 738 mmHg 88%
    07:00 +11°C° 0 mm 1 mps 738 mmHg 87%
    08:00 +12°C° 0 mm 1 mps 738 mmHg 81%
    09:00 +14°C° 0 mm 1 mps 738 mmHg 75%
    10:00 +15°C° 0 mm 1 mps 738 mmHg 68%
    11:00 +16°C° 0 mm 1 mps 738 mmHg 66%
    12:00 +16°C° 0 mm 1 mps 738 mmHg 63%
    13:00 +18°C° 0 mm 1 mps 738 mmHg 61%
    14:00 +18°C° 0 mm 1 mps 738 mmHg 61%
    15:00 +18°C° 0 mm 1 mps 738 mmHg 60%
    16:00 +18°C° 0 mm 1 mps 738 mmHg 60%
    17:00 +16°C° 0 mm 1 mps 738 mmHg 66%
    18:00 +14°C° 0 mm 1 mps 738 mmHg 71%
    19:00 +13°C° 0 mm 1 mps 738 mmHg 76%
    20:00 +13°C° 0 mm 1 mps 738 mmHg 78%
    21:00 +11°C° 0 mm 0 mps 738 mmHg 80%
    22:00 +11°C° 0 mm 0 mps 738 mmHg 82%
    23:00 +11°C° 0 mm 0 mps 738 mmHg 82%

    Tomorrow, 25 September, Monday

    Time Temperature Precipitation Wind Pressure Humidity
    00:00 +10°C° 0 mm 0 mps 738 mmHg 83%
    01:00 +10°C° 0 mm 0 mps 738 mmHg 84%
    02:00 +11°C° 0 mm 1 mps 738 mmHg 85%
    03:00 +11°C° 0 mm 1 mps 738 mmHg 85%
    04:00 +11°C° 0 mm 1 mps 738 mmHg 86%
    05:00 +11°C° 0 mm 1 mps 738 mmHg 85%
    06:00 +11°C° 0 mm 1 mps 738 mmHg 84%
    07:00 +12°C° 0 mm 2 mps 739 mmHg 83%
    08:00 +13°C° 0 mm 2 mps 739 mmHg 76%
    09:00 +15°C° 0 mm 2 mps 739 mmHg 69%
    10:00 +16°C° 0 mm 3 mps 739 mmHg 62%
    11:00 +17°C° 0 mm 3 mps 739 mmHg 59%
    12:00 +18°C° 0 mm 3 mps 739 mmHg 56%
    13:00 +19°C° 0 mm 3 mps 739 mmHg 53%
    14:00 +19°C° 0 mm 3 mps 739 mmHg 53%
    15:00 +19°C° 0 mm 2 mps 739 mmHg 53%
    16:00 +19°C° 0 mm 2 mps 739 mmHg 53%
    17:00 +17°C° 0 mm 2 mps 739 mmHg 58%
    18:00 +16°C° 0 mm 2 mps 739 mmHg 63%
    19:00 +15°C° 0 mm 2 mps 739 mmHg 67%
    20:00 +14°C° 0 mm 2 mps 739 mmHg 69%
    21:00 +14°C° 0 mm 2 mps 739 mmHg 71%
    22:00 +13°C° 0 mm 2 mps 739 mmHg 72%
    23:00 +13°C° 0.1 mm 2 mps 739 mmHg 74%

    Day after tomorrow, 26 September, Tuesday

    Time Temperature Precipitation Wind Pressure Humidity
    00:00 +13°C° 0.1 mm 2 mps 739 mmHg 75%
    01:00 +13°C° 0.1 mm 2 mps 739 mmHg 76%
    02:00 +12°C° 0.1 mm 2 mps 739 mmHg 77%
    03:00 +12°C° 0.1 mm 2 mps 739 mmHg 78%
    04:00 +12°C° 0.1 mm 2 mps 739 mmHg 78%
    05:00 +12°C° 0 mm 2 mps 739 mmHg 76%
    06:00 +13°C° 0 mm 2 mps 739 mmHg 75%
    07:00 +13°C° 0 mm 2 mps 739 mmHg 73%
    08:00 +14°C° 0 mm 3 mps 740 mmHg 66%
    09:00 +17°C° 0 mm 3 mps 740 mmHg 60%
    10:00 +19°C° 0 mm 3 mps 740 mmHg 53%
    11:00 +20°C° 0 mm 3 mps 740 mmHg 50%
    12:00 +21°C° 0 mm 3 mps 740 mmHg 47%
    13:00 +22°C° 0 mm 3 mps 740 mmHg 43%
    14:00 +22°C° 0 mm 3 mps 740 mmHg 45%
    15:00 +23°C° 0 mm 2 mps 740 mmHg 46%
    16:00 +23°C° 0 mm 2 mps 739 mmHg 47%
    17:00 +20°C° 0 mm 2 mps 740 mmHg 52%
    18:00 +19°C° 0 mm 2 mps 740 mmHg 57%
    19:00 +17°C° 0 mm 2 mps 740 mmHg 62%
    20:00 +17°C° 0 mm 2 mps 740 mmHg 64%
    21:00 +16°C° 0 mm 2 mps 740 mmHg 67%
    22:00 +16°C° 0 mm 2 mps 740 mmHg 69%
    23:00 +15°C° 0.1 mm 2 mps 740 mmHg 71%

    27 September, Wednesday

    Time Temperature Precipitation Wind Pressure Humidity
    00:00 +15°C° 0.1 mm 2 mps 740 mmHg 72%
    01:00 +15°C° 0.1 mm 2 mps 740 mmHg 74%
    02:00 +14°C° 0 mm 2 mps 740 mmHg 76%
    03:00 +14°C° 0 mm 2 mps 740 mmHg 77%
    04:00 +14°C° 0 mm 2 mps 740 mmHg 79%
    05:00 +14°C° 0 mm 2 mps 740 mmHg 78%
    06:00 +14°C° 0 mm 2 mps 741 mmHg 77%
    07:00 +15°C° 0 mm 2 mps 741 mmHg 76%
    08:00 +16°C° 0 mm 2 mps 741 mmHg 70%
    09:00 +18°C° 0 mm 2 mps 742 mmHg 63%
    10:00 +19°C° 0 mm 2 mps 742 mmHg 56%
    11:00 +20°C° 0 mm 2 mps 742 mmHg 52%
    12:00 +21°C° 0 mm 2 mps 742 mmHg 48%
    13:00 +23°C° 0 mm 2 mps 742 mmHg 44%
    14:00 +23°C° 0 mm 2 mps 742 mmHg 44%
    15:00 +23°C° 0 mm 2 mps 742 mmHg 44%
    16:00 +23°C° 0 mm 2 mps 741 mmHg 44%
    17:00 +20°C° 0 mm 2 mps 742 mmHg 46%
    18:00 +18°C° 0 mm 2 mps 742 mmHg 48%
    19:00 +17°C° 0 mm 2 mps 742 mmHg 51%
    20:00 +16°C° 0 mm 2 mps 742 mmHg 52%
    21:00 +16°C° 0 mm 2 mps 742 mmHg 53%
    22:00 +15°C° 0 mm 2 mps 742 mmHg 53%
    23:00 +14°C° 0 mm 2 mps 742 mmHg 55%

    28 September, Thursday

    Time Temperature Precipitation Wind Pressure Humidity
    00:00 +14°C° 0 mm 2 mps 742 mmHg 57%
    01:00 +13°C° 0 mm 2 mps 742 mmHg 59%
    02:00 +13°C° 0 mm 2 mps 742 mmHg 61%
    03:00 +13°C° 0 mm 2 mps 742 mmHg 63%
    04:00 +12°C° 0 mm 2 mps 742 mmHg 66%
    05:00 +12°C° 0 mm 2 mps 742 mmHg 66%
    06:00 +13°C° 0 mm 2 mps 743 mmHg 67%
    07:00 +13°C° 0 mm 2 mps 743 mmHg 68%
    08:00 +15°C° 0 mm 2 mps 743 mmHg 61%
    09:00 +17°C° 0 mm 2 mps 744 mmHg 54%
    10:00 +18°C° 0 mm 2 mps 744 mmHg 48%
    11:00 +19°C° 0 mm 2 mps 744 mmHg 45%
    12:00 +20°C° 0 mm 2 mps 744 mmHg 41%
    13:00 +22°C° 0 mm 1 mps 743 mmHg 38%
    14:00 +21°C° 0 mm 2 mps 743 mmHg 39%
    15:00 +21°C° 0 mm 2 mps 743 mmHg 40%
    16:00 +21°C° 0 mm 2 mps 743 mmHg 41%
    17:00 +19°C° 0 mm 2 mps 743 mmHg 45%
    18:00 +18°C° 0 mm 2 mps 743 mmHg 49%
    19:00 +16°C° 0 mm 2 mps 743 mmHg 53%
    20:00 +16°C° 0 mm 2 mps 743 mmHg 55%
    21:00 +15°C° 0 mm 2 mps 744 mmHg 58%
    22:00 +14°C° 0 mm 2 mps 744 mmHg 60%
    23:00 +14°C° 0 mm 2 mps 744 mmHg 61%

    29 September, Friday

    Time Temperature Precipitation Wind Pressure Humidity
    00:00 +14°C° 0 mm 2 mps 744 mmHg 63%
    01:00 +13°C° 0 mm 2 mps 744 mmHg 65%
    02:00 +13°C° 0 mm 2 mps 744 mmHg 66%
    03:00 +12°C° 0 mm 2 mps 744 mmHg 68%
    04:00 +12°C° 0 mm 2 mps 743 mmHg 69%
    05:00 +12°C° 0 mm 2 mps 744 mmHg 69%
    06:00 +12°C° 0 mm 2 mps 744 mmHg 69%
    07:00 +13°C° 0 mm 2 mps 744 mmHg 69%
    08:00 +14°C° 0 mm 2 mps 744 mmHg 63%
    09:00 +16°C° 0 mm 2 mps 744 mmHg 57%
    10:00 +17°C° 0 mm 2 mps 744 mmHg 50%
    11:00 +18°C° 0 mm 2 mps 744 mmHg 47%
    12:00 +19°C° 0 mm 2 mps 744 mmHg 44%
    13:00 +20°C° 0 mm 2 mps 743 mmHg 41%
    14:00 +20°C° 0 mm 2 mps 743 mmHg 41%
    15:00 +20°C° 0 mm 2 mps 743 mmHg 41%
    16:00 +19°C° 0 mm 2 mps 742 mmHg 41%
    17:00 +18°C° 0 mm 2 mps 742 mmHg 45%
    18:00 +16°C° 0 mm 2 mps 742 mmHg 49%
    19:00 +15°C° 0 mm 2 mps 742 mmHg 52%
    20:00 +14°C° 0 mm 2 mps 742 mmHg 54%
    21:00 +14°C° 0 mm 2 mps 742 mmHg 56%
    22:00 +13°C° 0 mm 2 mps 742 mmHg 58%
    23:00 +13°C° 0 mm 2 mps 742 mmHg 60%
    Show more